Location: Düngen
(52.0952°N, 10.0219°E)
Time: 19:30:24
(UTC+00:00)

Cosmos 2263 Rocket - Pass Details

Date: 11 March 2026
Orbit: 823 x 846 km, 71.0° (Epoch: 20 April)

Event Time Altitude Azimuth Distance (km) Brightness Sun altitude
Rises 19:43:32 0° 324° (NW) 3,412 6.4 -22.7°
Reaches altitude 10° 19:47:15 10° 348° (NNW) 2,470 5.1 -23.2°
Maximum altitude 19:50:18 15° 21° (NNE) 2,157 4.4 -23.6°
Enters shadow 19:52:18 12° 44° (NE) 2,292 4.3 -23.9°
